Location: Hac?musa Deresi
(39.1694°N, 32.2508°E)
Time: 23:18:37
(UTC+00:00)

Cosmos 1980 Rocket - Pass Details

Date: 22 April 2026
Orbit: 826 x 850 km, 71.0° (Epoch: 9 May)

Event Time Altitude Azimuth Distance (km) Brightness Sun altitude
Rises 22:21:42 0° 338° (NNW) 3,422 6.0 -37.8°
Reaches altitude 10° 22:24:09 10° 339° (NNW) 2,483 5.2 -37.8°
Enters shadow 22:26:40 27° 342° (NNW) 1,568 3.9 -37.7°
